TimeCDT,TemperatureF,Dew PointF,Humidity,Sea Level PressureIn,VisibilityMPH,Wind Direction,Wind SpeedMPH,Gust SpeedMPH,PrecipitationIn,Events,Conditions,WindDirDegrees,DateUTC
12:55 AM,75.2,73.4,94,30.07,10.0,Calm,Calm,-,N/A,,Clear,0,2013-08-11 05:55:00
1:55 AM,75.2,73.4,94,30.07,10.0,Calm,Calm,-,N/A,,Clear,0,2013-08-11 06:55:00
2:55 AM,75.2,73.4,94,30.08,10.0,Calm,Calm,-,N/A,,Partly Cloudy,0,2013-08-11 07:55:00
3:15 AM,75.2,73.4,94,30.08,10.0,Calm,Calm,-,N/A,,Partly Cloudy,0,2013-08-11 08:15:00
3:35 AM,73.4,73.4,100,30.09,10.0,Calm,Calm,-,N/A,,Partly Cloudy,0,2013-08-11 08:35:00
3:55 AM,75.2,73.4,94,30.09,10.0,Calm,Calm,-,N/A,,Partly Cloudy,0,2013-08-11 08:55:00
4:15 AM,73.4,73.4,100,30.09,10.0,Calm,Calm,-,N/A,,Mostly Cloudy,0,2013-08-11 09:15:00
4:35 AM,75.2,73.4,94,30.09,10.0,Calm,Calm,-,N/A,,Mostly Cloudy,0,2013-08-11 09:35:00
4:55 AM,75.2,73.4,94,30.09,10.0,Calm,Calm,-,N/A,,Mostly Cloudy,0,2013-08-11 09:55:00
5:15 AM,75.2,73.4,94,30.08,10.0,ENE,3.5,-,N/A,,Partly Cloudy,60,2013-08-11 10:15:00
5:35 AM,75.2,73.4,94,30.08,10.0,Calm,Calm,-,N/A,,Overcast,0,2013-08-11 10:35:00
5:55 AM,73.4,73.4,100,30.08,9.0,Calm,Calm,-,N/A,,Mostly Cloudy,0,2013-08-11 10:55:00
6:55 AM,75.2,75.2,100,30.08,10.0,Calm,Calm,-,N/A,,Mostly Cloudy,0,2013-08-11 11:55:00
7:55 AM,78.8,75.2,89,30.10,10.0,Calm,Calm,-,N/A,,Mostly Cloudy,0,2013-08-11 12:55:00
8:55 AM,75.2,73.4,94,30.13,7.0,West,4.6,-,N/A,Rain,Light Rain,270,2013-08-11 13:55:00
9:55 AM,75.2,75.2,100,30.12,10.0,Calm,Calm,-,N/A,,Mostly Cloudy,0,2013-08-11 14:55:00
10:55 AM,73.4,73.4,100,30.14,10.0,Calm,Calm,-,N/A,Rain,Light Rain,0,2013-08-11 15:55:00
11:55 AM,75.2,73.4,94,30.15,10.0,Calm,Calm,-,N/A,,Overcast,0,2013-08-11 16:55:00
12:55 PM,80.6,73.4,79,30.11,10.0,Variable,3.5,-,N/A,,Overcast,0,2013-08-11 17:55:00
1:55 PM,84.2,75.2,74,30.09,10.0,Calm,Calm,-,N/A,,Mostly Cloudy,0,2013-08-11 18:55:00
2:55 PM,84.2,77.0,79,30.06,10.0,NNE,4.6,-,N/A,,Mostly Cloudy,20,2013-08-11 19:55:00
3:55 PM,86.0,77.0,74,30.07,10.0,Variable,4.6,-,N/A,,Clear,0,2013-08-11 20:55:00
4:55 PM,87.8,78.8,75,30.06,10.0,Variable,3.5,-,N/A,,Scattered Clouds,0,2013-08-11 21:55:00
5:55 PM,84.2,75.2,74,30.06,10.0,SSE,5.8,-,N/A,,Scattered Clouds,150,2013-08-11 22:55:00
6:55 PM,80.6,77.0,89,30.05,10.0,Calm,Calm,-,N/A,,Scattered Clouds,0,2013-08-11 23:55:00
7:55 PM,80.6,77.0,89,30.06,10.0,Calm,Calm,-,N/A,,Clear,0,2013-08-12 00:55:00
8:55 PM,78.8,75.2,89,30.06,10.0,Calm,Calm,-,N/A,,Clear,0,2013-08-12 01:55:00
9:55 PM,78.8,75.2,89,30.08,10.0,Calm,Calm,-,N/A,,Clear,0,2013-08-12 02:55:00
10:55 PM,77.0,75.2,94,30.08,10.0,Calm,Calm,-,N/A,,Partly Cloudy,0,2013-08-12 03:55:00